New Baltimore, MI

12:06 AM EST on February 20, 2017 (GMT -0500)
Selfridge Angb

Weather History for KMTC - October, 2012

Change the Weather History Date:

Friday, October 19, 2012

  Actual Average Record
Temperature  
Mean Temperature 52 °F -  
Max Temperature 57 °F 55 °F 85 °F (1953)
Min Temperature 46 °F 39 °F 25 °F (1974)
Degree Days  
Heating Degree Days 14    
Growing Degree Days 2 (Base 50)    
Moisture  
Dew Point 45 °F    
Average Humidity 79    
Maximum Humidity 93    
Minimum Humidity 55    
Precipitation  
Precipitation 0.22 in - - ()
Sea Level Pressure  
Sea Level Pressure 29.61 in    
Wind  
Wind Speed 10 mph (South)    
Max Wind Speed 20 mph    
Max Gust Speed -    
Visibility 9 miles    
Events Rain    
Averages and records for this station are not official NWS values.
T = Trace of Precipitation, MM = Missing Value Source: NWS Daily Summary

Daily Weather History Graph

Daily Weather History Graph

Search for Another Location

Airport or City:

Trip Planner

Search our weather history database for the weather conditions in past years. The results will help you decide how hot, cold, wet, or windy it might be!

Date:

Astronomy

Oct. 19, 2012 Rise Set
Actual Time 7:49 AM EDT 6:41 PM EDT
Civil Twilight 7:21 AM EDT 7:10 PM EDT
Nautical Twilight 6:48 AM EDT 7:43 PM EDT
Astronomical Twilight 6:15 AM EDT 8:15 PM EDT
Moon 12:36 PM EDT (10/19) 10:14 PM EDT (10/19)
Length of Visible Light 11h 49m
Length of Day
10h 52m
Waxing Crescent, 23% of the Moon is Illuminated
Oct 19
Waxing Crescent
Oct 21
First Quarter
Oct 29
Full
Nov 6
Last Quarter
Nov 13
New

Hourly Weather History & Observations

Time (EDT) Temp. Windchill Dew Point Humidity Pressure Visibility Wind Dir Wind Speed Gust Speed Precip Events Conditions
4:55 AM 51.8 °F - 48.2 °F 88% 29.64 in 10.0 mi SSE 10.4 mph - N/A   Overcast
5:55 AM 53.6 °F - 46.4 °F 77% 29.63 in 10.0 mi SSE 9.2 mph - N/A   Overcast
6:55 AM 53.6 °F - 46.4 °F 77% 29.63 in 10.0 mi SSE 15.0 mph - N/A   Overcast
7:55 AM 53.6 °F - 46.4 °F 77% 29.62 in 10.0 mi SSE 11.5 mph - N/A   Overcast
8:40 AM 53.6 °F - 46.4 °F 77% 29.60 in 10.0 mi SSE 11.5 mph - N/A Rain Light Rain
8:55 AM 53.6 °F - 46.4 °F 77% 29.63 in 10.0 mi South 11.5 mph - N/A Rain Light Rain
9:45 AM 53.6 °F - 46.4 °F 77% 29.60 in 10.0 mi South 10.4 mph - N/A   Overcast
9:55 AM 53.6 °F - 46.4 °F 77% 29.63 in 10.0 mi South 10.4 mph - N/A   Overcast
10:55 AM 53.6 °F - 44.6 °F 72% 29.63 in 10.0 mi South 11.5 mph - N/A   Overcast
11:55 AM 55.4 °F - 44.6 °F 67% 29.62 in 10.0 mi SSE 12.7 mph - N/A   Overcast
12:55 PM 55.4 °F - 44.6 °F 67% 29.61 in 10.0 mi South 19.6 mph - N/A   Mostly Cloudy
1:55 PM 57.2 °F - 41.0 °F 55% 29.59 in 12.0 mi SSE 13.8 mph - N/A   Mostly Cloudy
2:55 PM 55.4 °F - 42.8 °F 63% 29.58 in 12.0 mi SSE 11.5 mph - N/A   Mostly Cloudy
3:55 PM 55.4 °F - 42.8 °F 63% 29.58 in 12.0 mi SE 8.1 mph - N/A   Overcast
4:09 PM 55.4 °F - 42.8 °F 63% 29.55 in 12.0 mi SSE 6.9 mph - N/A Rain Light Rain
4:55 PM 51.8 °F - 44.6 °F 76% 29.59 in 7.0 mi South 12.7 mph - N/A Rain Light Rain
5:55 PM 48.2 °F - 44.6 °F 87% 29.62 in 5.0 mi South 9.2 mph - N/A Rain Light Rain
6:55 PM 48.2 °F - 46.4 °F 93% 29.63 in 7.0 mi South 6.9 mph - N/A Rain Light Rain
7:55 PM 48.2 °F - 44.6 °F 87% 29.63 in 10.0 mi SSW 6.9 mph - N/A Rain Light Rain
8:55 PM 46.4 °F 42.9 °F 44.6 °F 93% 29.62 in 10.0 mi South 6.9 mph - N/A Rain Light Rain
9:36 PM 46.4 °F 44.3 °F 44.6 °F 93% 29.59 in 9.0 mi SSW 4.6 mph - N/A Rain Light Rain
9:51 PM 46.4 °F 42.9 °F 44.6 °F 93% 29.59 in 10.0 mi SW 6.9 mph - N/A Rain Light Rain
9:55 PM 46.4 °F 43.5 °F 44.6 °F 93% 29.62 in 10.0 mi SSW 5.8 mph - N/A Rain Light Rain
10:46 PM 46.4 °F 44.3 °F 44.6 °F 93% 29.58 in 5.0 mi SW 4.6 mph - N/A Rain Light Rain
10:55 PM 46.4 °F 44.3 °F 44.6 °F 93% 29.61 in 5.0 mi SW 4.6 mph - N/A Rain Light Rain